Location: Lawrence Hall of Science
(37.8785°N, 122.2415°W)
Time: 00:23:57
(UTC-07:00)

Cosmos 2151 - Visible Passes

Search period start: 02 July 2016 00:00
Search period end: 12 July 2016 00:00
Orbit: 582 x 603 km, 82.5° (Epoch: 01 July)

Date Brightness Start Highest point End Pass type
(mag) Time Alt. Az. Time Alt. Az. Time Alt. Az.
02 Jul 4.6 21:49:18 10° SW 21:53:08 35° WNW 21:57:00 10° NNW visible
03 Jul 5.4 21:58:58 10° SW 22:02:18 23° WNW 22:05:40 10° NNW visible
04 Jul 5.9 22:09:05 10° WSW 22:11:31 15° WNW 22:13:58 10° NW visible
07 Jul 4.0 20:57:07 10° SSW 21:01:12 51° W 21:05:19 10° N visible
08 Jul 5.0 21:06:34 10° SW 21:10:20 32° WNW 21:14:08 10° NNW visible
09 Jul 5.8 21:16:18 10° SW 21:19:30 21° WNW 21:22:44 10° NNW visible
10 Jul 6.1 21:26:33 10° WSW 21:28:44 14° WNW 21:30:55 10° NW visible
